"Pseudo-MPEC" for C41ZM82

Created 2020 Dec 1 14:07:07 UT using Find_Orb

Click here for an explanation of pseudo-MPECs

 
 Astrometry: 
     C41ZM82  C2020 11 26.52747710 48 56.59 -14 11 41.2    ~BQDM 20.40GVNEOCPG96
     C41ZM82  C2020 11 26.53182510 48 54.96 -14 11 34.4    ~BQDM 20.14GVNEOCPG96
     C41ZM82  C2020 11 26.53618010 48 53.33 -14 11 28.1    ~BQDM 20.15GVNEOCPG96
     C41ZM82  C2020 11 26.54052310 48 51.69 -14 11 21.4    ~BQDM 19.88GVNEOCPG96
     C41ZM82 HC2020 11 26.54765710 48 48.98 -14 11 10.2    ~BQDb 20.40GVNEOCPG96
     C41ZM82 HC2020 11 26.54794710 48 48.94 -14 11 09.9    ~BQDb 20.43GVNEOCPG96
     C41ZM82 HC2020 11 26.54823710 48 48.80 -14 11 09.9    ~BQDb 20.35GVNEOCPG96
     C41ZM82 mC2020 11 28.54436710 36 56.83 -13 20 07.3    ~BSDM 20.11GVNEOCPG96
     C41ZM82 mC2020 11 28.54477310 36 56.68 -13 20 07.0    ~BSDM 20.11GVNEOCPG96
     C41ZM82 mC2020 11 28.54685910 36 55.93 -13 20 03.6    ~BSDM 20.29GVNEOCPG96
     C41ZM82 KC2020 11 29.46128010 31 39.99 -12 56 33.1    ~BTBM 19.92GVNEOCPI52
     C41ZM82 KC2020 11 29.46306110 31 39.37 -12 56 30.7    ~BTBM 19.93GVNEOCPI52
     C41ZM82 KC2020 11 29.46484210 31 38.76 -12 56 27.5    ~BTBM 20.14GVNEOCPI52
     C41ZM82 KC2020 11 29.46662210 31 38.13 -12 56 24.9    ~BTBM 19.63GVNEOCPI52
     C41ZM82 IC2020 12 017,PM*M*cnY*DajPNUAnVgeD?,J^,b4wndJSkT9h!^)EhXd1QF/J,L01
     C41ZM82 pC2020 12 015OjA7X`Bi9hw/'?0?IUb[0AstrometryLaA#-P'n@V^aH=Z.9IG'L01
     C41ZM82 pC2020 12 010c@A\CPD$`J?[''f/u,?YGAP'Oj*PK_ah%\%2#ZMredacted;Ny.L01
     C41ZM82 pC2020 12 01UN!4^5\%clicke=//H95-TWf6\B#`Ph!8C\gb]!L7%lUhUW(D\^sL01
     C41ZM82 pC2020 12 018PR\@]r?9hereWo],_O;N_L0)jl_(?xbo*DO%\HCUa#2V)J=BSXJL01
     C41ZM82 pC2020 12 018+ZBO'[2F3tp?EC!GfforVciC?LG6HIs9.-5]4JI5^D+c*y,?NobL01
     C41ZM82 pC2020 12 01Khhr%6sNcf6qUM_%wtcAY?^J]*sEVa3N@$GHgg^8B2xH/L1P`Qh$L01
     C41ZM82 |C2020 12 01Ij(-t!,P@Y]D+enj$jV8e($ohU]FX'(e!]r,l?7jyBUmf3^BiP-L807
     C41ZM82 |C2020 12 01TV:c9;B@Cav'3\[%!rInYH5l`W66?bEuV.5qP/explanation;l+807
     C41ZM82 |C2020 12 01v%gW+h).Cwgkf4QDJA=fflBu[:%k/qv+w\`ED)v2Nc%a$GXj3Jfb807

Station data:
(807) Cerro Tololo Observatory, La Serena  (S30.169136 W70.805900)  Chile.
(G96) Mt. Lemmon Survey  (N32.442754 W110.788720)  US/Arizona.  Observers T.
   A. Pruyne, B. M. Africano, E. J. Christensen, G. A. Farneth, D. C. Fuls,
   A. R. Gibbs, A. D. Grauer, H. Gröller, J. A. Johnson, R. A. Kowalski, S.
   M. Larson, G. J. Leonard, D. Rankin, R. L. Seaman, F. C. Shelly. 1.5-m
   reflector + 10K CCD.
(I52) Steward Observatory, Mt. Lemmon Station  (N32.442547 W110.788920)
   US/Arizona.  Observers T. A. Pruyne, B. M. Africano, E. J. Christensen, G.
   A. Farneth, D. C. Fuls, A. R. Gibbs, A. D. Grauer, H. Gröller, J. A.
   Johnson, R. A. Kowalski, S. M. Larson, G. J. Leonard, D. Rankin, R. L.
   Seaman, F. C. Shelly. 1.0-m reflector + CCD.
(L01) Višnjan Observatory, Tičan  (N45.290900 E13.749300)  Croatia.
   Observers K. Korlević, E. Pettarin. Measurer E. Pettarin. 1.0-m f/2.9
   reflector + CCD.

Orbital elements:  C41ZM82
   Perihelion 2020 Oct 15.633063 +/- 0.119 TT = 15:11:36 (JD 2459138.133063)
Epoch 2020 Dec  1.0 TT = JDT 2459184.5   Earth MOID: 0.1042   Ve: 0.0391
M  12.37301999 +/- 0.37             (J2000 ecliptic)          AutoNEOCP
n   0.26685006 +/- 0.00736          Peri.  174.48656 +/- 0.10
a   2.38941274 +/- 0.0439           Node   182.24274 +/- 0.10
e   0.7531909 +/- 0.00557           Incl.    6.16964 +/- 0.041
P   3.69                   H 20.2   G  0.15   U  9.4  
q 0.58972862 +/- 0.00242    Q 4.18909686 +/- 0.0878
From 24 observations 2020 Nov. 26-Dec. 1; mean residual 0".20
Residuals in arcseconds: 
201126 G96  .08+  .05-    201128 G96  .05+  .07-    201201 L01  .00   .05+    
201126 G96  .07+  .16+    201128 G96  .07+  .13+    201201 L01  .04-  .27+    
201126 G96  .11+  .15-    201129 I52  .30-  .14-    201201 L01  .36+  .42-    
201126 G96  .06-  .05-    201129 I52  .19-  .46-    201201 L01  .22+  .16+    
201126 G96  .58-  .31+    201129 I52  .06+  .03+    201201 L01  .05+  .14+    
201126 G96  .42+  .16+    201129 I52  .02+  .08-    201201 807  .04-  .08+    
201126 G96  .03-  .28-    201201 L01  .19+  .03+    201201 807  .11-  .04+    
201128 G96  .11+  .25+    201201 L01  .13-  .19-    201201 807  .12-  .09+    

Ephemerides (geocentric):
Date (UTC) HH   RA              Dec         delta   r     elong  mag " sig PA
---- -- -- --  -------------   -----------  ------ ------ -----  --- ---- ---
2020 12 01 14  10 19 44.312   -12 01 26.69  .30706 1.0236  88.2 20.3 .127 114
2020 12 01 15  10 19 30.540   -12 00 21.95  .30717 1.0241  88.3 20.3 .128 113
2020 12 01 16  10 19 16.777   -11 59 17.19  .30728 1.0246  88.4 20.3 .129 112
2020 12 01 17  10 19 03.024   -11 58 12.43  .30739 1.0251  88.5 20.3 .130 111
2020 12 01 18  10 18 49.280   -11 57 07.66  .30751 1.0257  88.6 20.3 .131 110
2020 12 01 19  10 18 35.546   -11 56 02.88  .30762 1.0262  88.7 20.3 .133 109
2020 12 01 20  10 18 21.821   -11 54 58.09  .30773 1.0267  88.8 20.3 .134 107
2020 12 01 21  10 18 08.106   -11 53 53.29  .30784 1.0273  88.9 20.3 .136 106
2020 12 01 22  10 17 54.400   -11 52 48.48  .30796 1.0278  89.0 20.3 .137 105
2020 12 01 23  10 17 40.704   -11 51 43.67  .30807 1.0283  89.1 20.3 .139 104
2020 12 02 00  10 17 27.016   -11 50 38.85  .30818 1.0289  89.2 20.3 .141 103
2020 12 02 01  10 17 13.338   -11 49 34.01  .30830 1.0294  89.3 20.3 .143 102
2020 12 02 02  10 16 59.670   -11 48 29.17  .30841 1.0299  89.4 20.3 .145 101
2020 12 02 03  10 16 46.010   -11 47 24.32  .30853 1.0305  89.5 20.3 .147 100
2020 12 02 04  10 16 32.360   -11 46 19.47  .30864 1.0310  89.6 20.3 .150  99
2020 12 02 05  10 16 18.719   -11 45 14.60  .30875 1.0315  89.7 20.3 .152  98
2020 12 02 06  10 16 05.087   -11 44 09.73  .30887 1.0320  89.8 20.3 .155  97
2020 12 02 07  10 15 51.464   -11 43 04.84  .30898 1.0326  89.9 20.3 .157  97
2020 12 02 08  10 15 37.851   -11 41 59.95  .30910 1.0331  90.0 20.3 .160  96
2020 12 02 09  10 15 24.246   -11 40 55.05  .30921 1.0336  90.1 20.3 .163  95
2020 12 02 10  10 15 10.650   -11 39 50.14  .30933 1.0342  90.2 20.3 .166  94
2020 12 02 11  10 14 57.064   -11 38 45.22  .30944 1.0347  90.3 20.3 .169  93
2020 12 02 12  10 14 43.486   -11 37 40.29  .30956 1.0352  90.4 20.3 .172  93
2020 12 02 13  10 14 29.918   -11 36 35.36  .30967 1.0358  90.5 20.3 .176  92
2020 12 02 14  10 14 16.358   -11 35 30.41  .30979 1.0363  90.6 20.3 .179  91
2020 12 02 15  10 14 02.807   -11 34 25.46  .30990 1.0368  90.7 20.3 .183  91
2020 12 02 16  10 13 49.265   -11 33 20.50  .31002 1.0374  90.8 20.3 .186  90
2020 12 02 17  10 13 35.732   -11 32 15.53  .31014 1.0379  90.9 20.3 .190  90
2020 12 02 18  10 13 22.208   -11 31 10.55  .31025 1.0384  91.0 20.3 .194  89
2020 12 02 19  10 13 08.693   -11 30 05.56  .31037 1.0390  91.1 20.3 .198  88
2020 12 02 20  10 12 55.186   -11 29 00.56  .31049 1.0395  91.2 20.3 .202  88
2020 12 02 21  10 12 41.688   -11 27 55.55  .31060 1.0400  91.3 20.3 .207  87
2020 12 02 22  10 12 28.199   -11 26 50.54  .31072 1.0405  91.4 20.3 .211  87
2020 12 02 23  10 12 14.718   -11 25 45.51  .31084 1.0411  91.5 20.3 .215  86
2020 12 03 00  10 12 01.247   -11 24 40.48  .31096 1.0416  91.6 20.3 .220  86
2020 12 03 01  10 11 47.784   -11 23 35.44  .31107 1.0421  91.6 20.3 .225  86
2020 12 03 02  10 11 34.329   -11 22 30.38  .31119 1.0427  91.7 20.3 .229  85
2020 12 03 03  10 11 20.883   -11 21 25.32  .31131 1.0432  91.8 20.3 .234  85
2020 12 03 04  10 11 07.446   -11 20 20.25  .31143 1.0437  91.9 20.3 .239  85
2020 12 03 05  10 10 54.017   -11 19 15.17  .31155 1.0443  92.0 20.3 .244  84
2020 12 03 06  10 10 40.596   -11 18 10.08  .31167 1.0448  92.1 20.3 .250  84
2020 12 03 07  10 10 27.184   -11 17 04.99  .31178 1.0453  92.2 20.3 .255  84
2020 12 03 08  10 10 13.781   -11 15 59.88  .31190 1.0459  92.3 20.3 .260  83
2020 12 03 09  10 10 00.386   -11 14 54.76  .31202 1.0464  92.4 20.2 .266  83
2020 12 03 10  10 09 47.000   -11 13 49.64  .31214 1.0469  92.5 20.2 .272  83
2020 12 03 11  10 09 33.621   -11 12 44.51  .31226 1.0474  92.6 20.2 .277  83
2020 12 03 12  10 09 20.252   -11 11 39.36  .31238 1.0480  92.7 20.2 .283  83
2020 12 03 13  10 09 06.890   -11 10 34.21  .31250 1.0485  92.8 20.2 .289  82